• în România
  • Lista ţărilor
  • Pe 7 zile
  • Temperatura apei
  • Hartă satelitară
  • Meteo pe hartă
  • Widget-uri
  • user-avatar
    Intrare

    Meteo pe oră la Naftalan

    Astăzi, 20 Iulie, Joi

    Timp Temperatura Precipitaţii Vânt Presiune Umiditate
    00:00 +28°C° 0 mm 2 m/s 758 mmHg 57%
    01:00 +28°C° 0 mm 2 m/s 757 mmHg 57%
    02:00 +27°C° 0 mm 2 m/s 757 mmHg 57%
    03:00 +27°C° 0 mm 2 m/s 757 mmHg 54%
    04:00 +28°C° 0 mm 2 m/s 757 mmHg 52%
    05:00 +29°C° 0 mm 1 m/s 757 mmHg 49%
    06:00 +29°C° 0 mm 1 m/s 757 mmHg 47%
    07:00 +31°C° 0 mm 1 m/s 757 mmHg 39%
    08:00 +33°C° 0 mm 1 m/s 757 mmHg 32%
    09:00 +36°C° 0 mm 1 m/s 757 mmHg 23%
    10:00 +38°C° 0 mm 2 m/s 757 mmHg 20%
    11:00 +40°C° 0 mm 3 m/s 757 mmHg 16%
    12:00 +42°C° 0 mm 4 m/s 757 mmHg 13%
    13:00 +42°C° 0 mm 4 m/s 756 mmHg 13%
    14:00 +42°C° 0 mm 4 m/s 756 mmHg 13%
    15:00 +42°C° 0 mm 4 m/s 756 mmHg 13%
    16:00 +41°C° 0 mm 4 m/s 755 mmHg 16%
    17:00 +38°C° 0 mm 4 m/s 755 mmHg 19%
    18:00 +37°C° 0 mm 3 m/s 755 mmHg 21%
    19:00 +35°C° 0 mm 3 m/s 756 mmHg 27%
    20:00 +32°C° 0 mm 2 m/s 756 mmHg 33%
    21:00 +30°C° 0 mm 1 m/s 756 mmHg 38%
    22:00 +30°C° 0 mm 1 m/s 756 mmHg 40%
    23:00 +29°C° 0 mm 1 m/s 757 mmHg 42%

    Mâine, 21 Iulie, Vineri

    Timp Temperatura Precipitaţii Vânt Presiune Umiditate
    00:00 +29°C° 0 mm 1 m/s 757 mmHg 43%
    01:00 +28°C° 0 mm 1 m/s 757 mmHg 44%
    02:00 +28°C° 0 mm 1 m/s 757 mmHg 45%
    03:00 +27°C° 0 mm 2 m/s 757 mmHg 46%
    04:00 +28°C° 0 mm 2 m/s 757 mmHg 44%
    05:00 +29°C° 0 mm 2 m/s 757 mmHg 41%
    06:00 +30°C° 0 mm 2 m/s 758 mmHg 38%
    07:00 +33°C° 0 mm 3 m/s 758 mmHg 32%
    08:00 +35°C° 0 mm 3 m/s 758 mmHg 27%
    09:00 +37°C° 0 mm 3 m/s 758 mmHg 22%
    10:00 +39°C° 0 mm 3 m/s 758 mmHg 19%
    11:00 +40°C° 0 mm 3 m/s 758 mmHg 16%
    12:00 +43°C° 0 mm 3 m/s 758 mmHg 13%
    13:00 +43°C° 0 mm 4 m/s 758 mmHg 14%
    14:00 +43°C° 0 mm 4 m/s 757 mmHg 14%
    15:00 +43°C° 0 mm 5 m/s 757 mmHg 14%
    16:00 +42°C° 0 mm 5 m/s 757 mmHg 17%
    17:00 +40°C° 0 mm 4 m/s 757 mmHg 20%
    18:00 +38°C° 0 mm 4 m/s 758 mmHg 22%
    19:00 +36°C° 0 mm 4 m/s 758 mmHg 27%
    20:00 +34°C° 0 mm 3 m/s 758 mmHg 33%
    21:00 +31°C° 0 mm 3 m/s 759 mmHg 38%
    22:00 +30°C° 0 mm 3 m/s 759 mmHg 41%
    23:00 +30°C° 0 mm 3 m/s 759 mmHg 43%

    Poimâine, 22 Iulie, Sâmbătă

    Timp Temperatura Precipitaţii Vânt Presiune Umiditate
    00:00 +29°C° 0 mm 3 m/s 759 mmHg 46%
    01:00 +29°C° 0 mm 3 m/s 759 mmHg 48%
    02:00 +28°C° 0 mm 3 m/s 759 mmHg 49%
    03:00 +28°C° 0 mm 4 m/s 759 mmHg 51%
    04:00 +28°C° 0 mm 3 m/s 759 mmHg 49%
    05:00 +29°C° 0 mm 3 m/s 759 mmHg 48%
    06:00 +30°C° 0 mm 3 m/s 760 mmHg 46%
    07:00 +33°C° 0 mm 3 m/s 760 mmHg 39%
    08:00 +35°C° 0 mm 3 m/s 760 mmHg 33%
    09:00 +37°C° 0 mm 3 m/s 760 mmHg 26%
    10:00 +38°C° 0 mm 4 m/s 760 mmHg 24%
    11:00 +41°C° 0 mm 4 m/s 760 mmHg 21%
    12:00 +42°C° 0 mm 5 m/s 759 mmHg 19%
    13:00 +42°C° 0 mm 5 m/s 759 mmHg 20%
    14:00 +42°C° 0 mm 5 m/s 759 mmHg 21%
    15:00 +42°C° 0 mm 5 m/s 758 mmHg 21%
    16:00 +40°C° 0 mm 5 m/s 758 mmHg 25%
    17:00 +38°C° 0 mm 4 m/s 758 mmHg 28%
    18:00 +36°C° 0 mm 4 m/s 758 mmHg 32%
    19:00 +34°C° 0 mm 3 m/s 758 mmHg 37%
    20:00 +33°C° 0 mm 3 m/s 759 mmHg 43%
    21:00 +30°C° 0 mm 2 m/s 759 mmHg 49%
    22:00 +30°C° 0 mm 2 m/s 759 mmHg 49%
    23:00 +29°C° 0 mm 2 m/s 759 mmHg 49%

    23 Iulie, Duminică

    Timp Temperatura Precipitaţii Vânt Presiune Umiditate
    00:00 +29°C° 0 mm 1 m/s 758 mmHg 49%
    01:00 +29°C° 0 mm 2 m/s 758 mmHg 48%
    02:00 +28°C° 0 mm 2 m/s 758 mmHg 48%
    03:00 +28°C° 0 mm 2 m/s 758 mmHg 47%
    04:00 +29°C° 0 mm 2 m/s 758 mmHg 46%
    05:00 +29°C° 0 mm 2 m/s 758 mmHg 45%
    06:00 +30°C° 0 mm 1 m/s 758 mmHg 44%
    07:00 +32°C° 0 mm 1 m/s 758 mmHg 39%
    08:00 +34°C° 0 mm 1 m/s 758 mmHg 33%
    09:00 +36°C° 0 mm 1 m/s 758 mmHg 28%
    10:00 +38°C° 0 mm 2 m/s 757 mmHg 24%
    11:00 +40°C° 0 mm 3 m/s 757 mmHg 20%
    12:00 +42°C° 0 mm 3 m/s 757 mmHg 17%
    13:00 +42°C° 0 mm 4 m/s 756 mmHg 16%
    14:00 +43°C° 0 mm 4 m/s 756 mmHg 16%
    15:00 +43°C° 0 mm 5 m/s 756 mmHg 16%
    16:00 +41°C° 0 mm 5 m/s 755 mmHg 19%
    17:00 +39°C° 0 mm 5 m/s 755 mmHg 23%
    18:00 +37°C° 0 mm 4 m/s 755 mmHg 26%
    19:00 +35°C° 0 mm 4 m/s 755 mmHg 32%
    20:00 +33°C° 0 mm 4 m/s 756 mmHg 38%
    21:00 +30°C° 0 mm 3 m/s 756 mmHg 44%
    22:00 +30°C° 0 mm 3 m/s 756 mmHg 46%
    23:00 +29°C° 0 mm 2 m/s 756 mmHg 48%

    24 Iulie, Luni

    Timp Temperatura Precipitaţii Vânt Presiune Umiditate
    00:00 +29°C° 0 mm 2 m/s 756 mmHg 50%
    01:00 +29°C° 0 mm 2 m/s 756 mmHg 49%
    02:00 +29°C° 0 mm 3 m/s 756 mmHg 48%
    03:00 +28°C° 0 mm 3 m/s 755 mmHg 47%
    04:00 +29°C° 0 mm 3 m/s 756 mmHg 46%
    05:00 +29°C° 0 mm 4 m/s 756 mmHg 45%
    06:00 +30°C° 0 mm 4 m/s 756 mmHg 44%
    07:00 +33°C° 0 mm 4 m/s 756 mmHg 38%
    08:00 +35°C° 0 mm 4 m/s 756 mmHg 31%
    09:00 +37°C° 0 mm 4 m/s 756 mmHg 25%
    10:00 +40°C° 0 mm 5 m/s 756 mmHg 23%
    11:00 +41°C° 0 mm 6 m/s 756 mmHg 21%
    12:00 +43°C° 0 mm 7 m/s 755 mmHg 19%
    13:00 +43°C° 0 mm 7 m/s 755 mmHg 20%
    14:00 +41°C° 0 mm 8 m/s 755 mmHg 22%
    15:00 +41°C° 0 mm 8 m/s 755 mmHg 24%
    16:00 +39°C° 0 mm 8 m/s 755 mmHg 27%
    17:00 +38°C° 0 mm 7 m/s 755 mmHg 30%
    18:00 +35°C° 0 mm 7 m/s 755 mmHg 33%
    19:00 +34°C° 0 mm 6 m/s 755 mmHg 38%
    20:00 +32°C° 0 mm 5 m/s 756 mmHg 43%
    21:00 +30°C° 0 mm 4 m/s 756 mmHg 48%
    22:00 +29°C° 0 mm 4 m/s 756 mmHg 49%
    23:00 +29°C° 0 mm 4 m/s 756 mmHg 51%

    25 Iulie, Marţi

    Timp Temperatura Precipitaţii Vânt Presiune Umiditate
    00:00 +29°C° 0 mm 4 m/s 756 mmHg 52%
    01:00 +28°C° 0 mm 4 m/s 756 mmHg 53%
    02:00 +28°C° 0 mm 4 m/s 756 mmHg 54%
    03:00 +28°C° 0 mm 4 m/s 757 mmHg 55%
    04:00 +29°C° 0 mm 4 m/s 757 mmHg 53%
    05:00 +29°C° 0 mm 4 m/s 757 mmHg 52%
    06:00 +29°C° 0 mm 4 m/s 757 mmHg 51%
    07:00 +32°C° 0 mm 4 m/s 757 mmHg 45%
    08:00 +34°C° 0 mm 3 m/s 757 mmHg 40%
    09:00 +36°C° 0 mm 3 m/s 757 mmHg 34%
    10:00 +37°C° 0 mm 4 m/s 757 mmHg 30%
    11:00 +40°C° 0 mm 5 m/s 757 mmHg 26%
    12:00 +42°C° 0 mm 5 m/s 756 mmHg 23%
    13:00 +41°C° 0 mm 6 m/s 756 mmHg 23%
    14:00 +41°C° 0 mm 7 m/s 756 mmHg 24%
    15:00 +41°C° 0 mm 8 m/s 756 mmHg 25%
    16:00 +39°C° 0 mm 7 m/s 756 mmHg 28%
    17:00 +38°C° 0 mm 7 m/s 756 mmHg 32%
    18:00 +35°C° 0 mm 6 m/s 756 mmHg 35%
    19:00 +34°C° 0 mm 5 m/s 757 mmHg 41%
    20:00 +32°C° 0 mm 4 m/s 757 mmHg 46%
    21:00 +30°C° 0 mm 4 m/s 757 mmHg 52%
    22:00 +29°C° 0 mm 3 m/s 757 mmHg 54%
    23:00 +29°C° 0 mm 3 m/s 757 mmHg 57%
    Arată mai mult